ギャラッド彗星

296P/Garradd (2001)

English version
Home page
Updated on January 13, 2014

---------------------------------------------------------------------

・ プロフィール

・ 軌道要素

Epoch 2001 Jan. 11.0 TT = JDT 2451920.5
T 2001 Jan. 25.52233 TT                                 MPC
q   1.8346686            (2000.0)            P               Q
n   0.15016925     Peri.  350.21331     -0.26147920     +0.86753321
a   3.5054898      Node   263.67257     -0.85428694     -0.41203637
e   0.4766299      Incl.   25.19463     -0.44924653     +0.27858958
P   6.56
From 80 observations 2001 June 30-2014 Jan. 7, mean residual 0".6.

・ 光度変化

        m1 = 14.0 + 5 logΔ + 10.0 log r

---------------------------------------------------------------------

軌道要素はM.P.E.C. 2014-A49に掲載されたものです。
光度グラフはComet for Windowsで作成したものです。

---------------------------------------------------------------------

Copyright(C) Seiichi Yoshida (comet@aerith.net). All rights reserved.